278  
ASUS43 KLSX 071307  
RWRMO  
 
WEATHER SUMMARY FOR MISSOURI  
NATIONAL WEATHER SERVICE SPRINGFIELD MO  
800 AM CDT THU JUL 07 2022  
 
NOTE: "FAIR" INDICATES FEW OR NO CLOUDS BELOW 12,000 FEET WITH NO  
SIGNIFICANT WEATHER AND/OR S TO VISIBILITY
.  
CURRENT SKY AND/OR WEATHER CONDITIONS ARE NOT AVAILABLE FOR  
CHILLICOTHE AND FARMINGTON.  
 
MOZ001>031-035>038-043-044-053-054-071400-   
..NORTHERN AND WESTERN MISSOURI
 
 
 
CITY SKY/WX TMP DP RH WIND PRES REMARKS
 
KANSAS CTY INT CLOUDY 73 69 87 E7 29.99R  
KANSAS C DTWN CLOUDY 74 71 91 NE7 29.97S  
LEE'S SUMMIT LGT RAIN 73 70 90 E7 29.99F  
ST JOSEPH LGT RAIN 69 69 100 NW5 29.96F  
CHILLICOTHE N/A 72 70 93 CALM 30.00F  
KIRKSVILLE RAIN 69 68 96 CALM 30.05S FOG  
 

 
MOZ066>068-077>081-088>096-101>105-071400-   
..SOUTHWEST MISSOURI
 
 
 
CITY SKY/WX TMP DP RH WIND PRES REMARKS
 
SPRINGFIELD SUNNY 79 70 74 S8 29.99R  
JOPLIN SUNNY 83 68 60 SW9 29.97R  
BRANSON SUNNY 82 68 61 SW7 30.02R  
 

 
MOZ032>034-039>042-045>050-055>058-069>072-071400-   
..CENTRAL MISSOURI
 
 
 
CITY SKY/WX TMP DP RH WIND PRES REMARKS
 
COLUMBIA CLOUDY 79 76 90 NW17 30.00R  
JEFFERSON CITY CLOUDY 81 73 76 SE3 29.96R  
ROLLA PTSUNNY 79 73 82 S5 29.99R  
SEDALIA CLOUDY 75 71 87 N10 30.03R  
WHITEMAN AFB CLOUDY 75 71 87 N13 29.99R  
WARRENSBURG N/A 72 68 88 NE3 30.01S  
 

 
MOZ051-052-059>065-071400-   
..EAST CENTRAL MISSOURI
 
 
 
CITY SKY/WX TMP DP RH WIND PRES REMARKS
 
ST LOUIS INTL CLOUDY 79 71 76 SE7 29.97R  
SPIRIT OF STL PTSUNNY 77 73 87 E5 29.95R  
ST CHARLES CLOUDY 77 72 84 E6 29.95R  
 

 
MOZ072>076-082>087-097>100-106>115-071400-   
..SOUTH CENTRAL AND SOUTHEAST MISSOURI
 
 
 
CITY SKY/WX TMP DP RH WIND PRES REMARKS
 
CAPE GIRARDEAU SUNNY 83 75 77 E6 29.98R HX 90  
FARMINGTON MOSUNNY 79 75 87 S6 30.00R  
POPLAR BLUFF SUNNY 84 77 79 CALM 29.97R HX 94  
WEST PLAINS SUNNY 84 71 65 SW5 30.02R  
 

 
 
 
CLICK HERE TO GO TO PREVIOUS BULLETINS.

The Nexlab MO Page Main Text Page